Tracking 19570 objects as of 22-Feb-2019
HD Live streaming from Space Station
objects crossing your sky now

OICETS

Track OICETS now!
10-day predictions
OICETS is classified as:


NORAD ID: 28809
Int'l Code: 2005-031A
Perigee: 559.3 km
Apogee: 588.5 km
Inclination: 97.9 °
Period: 96.0 minutes
Semi major axis: 6944 km
RCS: 1.711 m2 (large)
Launch date: August 23, 2005
Source: Japan (JPN)
Launch site: TYURATAM MISSILE AND SPACE COMPLEX (TTMTR)

Study inter-satellite communications.
aabbcc
Your satellite tracking list
Your tracking list is empty




NASA's NSSDC Master Catalog

Two Line Element Set (TLE):
1 28809U 05031A   19052.17957622 -.00000131  00000-0 -53788-5 0  9995
2 28809  97.9371 147.4662 0021031  87.8684 272.4947 15.00055924736173
Source of the keplerian elements: AFSPC